カタログに戻る

COSMOS 2583

運用中軍事PO
NORAD 62904·PAYLOAD·🇷🇺 Russia

打ち上げ Feb 5, 2025 から Plesetsk Cosmodrome

Loading…

次のパス (今後24時間)

TLE

最新Source: Space-Track

元期: Sep 14, 2026, 18:28 UTC

1 62904U 25026C   26257.76994170  .00001647  00000-0  14774-3 0  9995
2 62904  81.9991 343.0774 0011422 116.7636 243.4754 14.95158315 87587

AllMySatでCOSMOS 2583をリアルタイム追跡

Download on the App Store